Biarritz, France

12:56 AM CET on December 16, 2017 (GMT +0100)
Bayonne-Anglet

Weather History for LFBZ - March, 2013

Change the Weather History Date:

Thursday, March 21, 2013

  Actual Average Record
Temperature  
Mean Temperature 55 °F -  
Max Temperature 71 °F 59 °F 75 °F (2005)
Min Temperature 39 °F 45 °F 35 °F (2007)
Degree Days  
Heating Degree Days 10    
Growing Degree Days 5 (Base 50)    
Moisture  
Dew Point 34 °F    
Average Humidity 47    
Maximum Humidity 87    
Minimum Humidity 28    
Precipitation  
Precipitation 0.00 in - - ()
Sea Level Pressure  
Sea Level Pressure 29.88 in    
Wind  
Wind Speed 6 mph ()    
Max Wind Speed 12 mph    
Max Gust Speed 24 mph    
Visibility 6.2 miles    
Events      
Averages and records for this station are not official NWS values.
T = Trace of Precipitation, MM = Missing Value Source: Averaged Metar Reports

Daily Weather History Graph

Daily Weather History Graph

Search for Another Location

Airport or City:

Trip Planner

Search our weather history database for the weather conditions in past years. The results will help you decide how hot, cold, wet, or windy it might be!

Date:

Astronomy

Mar. 21, 2013 Rise Set
Actual Time 7:07 AM CET 7:19 PM CET
Civil Twilight 6:38 AM CET 7:48 PM CET
Nautical Twilight 6:05 AM CET 8:21 PM CET
Astronomical Twilight 5:31 AM CET 8:56 PM CET
Moon 1:27 PM CET (3/21) 3:28 AM CET (3/21)
Length of Visible Light 13h 09m
Length of Day
12h 12m
Waxing Gibbous, 66% of the Moon is Illuminated
Mar 21
Waxing Gibbous
Mar 27
Full
Apr 3
Last Quarter
Apr 10
New
Apr 18
First Quarter

Hourly Weather History & Observations

Time (CET) Temp. Windchill Dew Point Humidity Pressure Visibility Wind Dir Wind Speed Gust Speed Precip Events Conditions
12:00 AM 42.8 °F 39.3 °F 35.6 °F 76% 30.01 in 6.2 mi ESE 5.8 mph - N/A   Unknown
12:30 AM 41.0 °F 38.0 °F 35.6 °F 81% 30.01 in 6.2 mi SE 4.6 mph - N/A   Unknown
1:00 AM 41.0 °F 38.0 °F 35.6 °F 81% 30.01 in 6.2 mi SE 4.6 mph - N/A   Unknown
1:30 AM 41.0 °F 37.1 °F 35.6 °F 81% 30.01 in 6.2 mi SE 5.8 mph - N/A   Unknown
2:00 AM 39.2 °F 35.9 °F 35.6 °F 87% 30.01 in 6.2 mi ESE 4.6 mph - N/A   Unknown
2:30 AM 39.2 °F 34.2 °F 35.6 °F 87% 30.01 in 6.2 mi ESE 6.9 mph - N/A   Unknown
3:00 AM 39.2 °F 35.9 °F 35.6 °F 87% 29.98 in 6.2 mi SE 4.6 mph - N/A   Unknown
3:30 AM 39.2 °F 35.9 °F 35.6 °F 87% 29.98 in 6.2 mi SE 4.6 mph - N/A   Unknown
4:00 AM 39.2 °F 35.0 °F 33.8 °F 81% 29.98 in 6.2 mi SE 5.8 mph - N/A   Unknown
4:30 AM 39.2 °F 35.0 °F 32.0 °F 75% 29.95 in 6.2 mi SSE 5.8 mph - N/A   Unknown
5:00 AM 41.0 °F 37.1 °F 32.0 °F 70% 29.95 in 6.2 mi SSE 5.8 mph - N/A   Unknown
5:30 AM 48.2 °F - 32.0 °F 54% 29.95 in 6.2 mi SE 4.6 mph - N/A   Unknown
6:00 AM 46.4 °F 44.3 °F 32.0 °F 57% 29.95 in - SSE 4.6 mph - N/A   Clear
6:30 AM 50.0 °F - 32.0 °F 50% 29.95 in - SSE 5.8 mph - N/A   Clear
7:00 AM 50.0 °F - 30.2 °F 47% 29.95 in - SSE 5.8 mph - N/A   Clear
7:30 AM 50.0 °F - 32.0 °F 50% 29.92 in - South 4.6 mph - N/A   Clear
8:00 AM 53.6 °F - 32.0 °F 44% 29.92 in - South 5.8 mph - N/A   Clear
8:30 AM 53.6 °F - 32.0 °F 44% 29.92 in - SSE 4.6 mph - N/A   Clear
9:00 AM 57.2 °F - 32.0 °F 38% 29.92 in - SE 4.6 mph - N/A   Clear
9:30 AM 57.2 °F - 33.8 °F 41% 29.92 in - SE 4.6 mph - N/A   Clear
10:00 AM 60.8 °F - 33.8 °F 36% 29.92 in - SSE 4.6 mph - N/A   Clear
10:30 AM 60.8 °F - 32.0 °F 34% 29.89 in - Variable 4.6 mph - N/A   Clear
11:00 AM 62.6 °F - 33.8 °F 34% 29.89 in - South 6.9 mph - N/A   Clear
11:35 AM 62.6 °F - 33.8 °F 34% 29.89 in - Variable 8.1 mph 19.6 mph N/A   Clear
12:00 PM 64.4 °F - 33.8 °F 32% 29.89 in - Variable 6.9 mph - N/A   Clear
12:30 PM 66.2 °F - 35.6 °F 32% 29.86 in - Variable 6.9 mph - N/A   Clear
1:00 PM 68.0 °F - 33.8 °F 28% 29.86 in - Variable 9.2 mph 24.2 mph N/A   Clear
1:30 PM 68.0 °F - 35.6 °F 30% 29.86 in - South 11.5 mph 24.2 mph N/A   Clear
2:00 PM 66.2 °F - 33.8 °F 30% 29.86 in - Variable 6.9 mph - N/A   Clear
2:30 PM 68.0 °F - 37.4 °F 33% 29.86 in - Variable 9.2 mph - N/A   Clear
3:00 PM 69.8 °F - 37.4 °F 31% 29.83 in - SSW 5.8 mph - N/A   Clear
3:30 PM 69.8 °F - 39.2 °F 33% 29.83 in - Variable 6.9 mph - N/A   Clear
4:00 PM 68.0 °F - 37.4 °F 33% 29.83 in - SSW 6.9 mph - N/A   Clear
4:30 PM 69.8 °F - 39.2 °F 33% 29.80 in - SSW 5.8 mph - N/A   Clear
5:00 PM 71.6 °F - 37.4 °F 29% 29.80 in - SSW 6.9 mph - N/A   Clear
5:30 PM 69.8 °F - 37.4 °F 31% 29.80 in - Variable 8.1 mph - N/A   Clear
6:00 PM 69.8 °F - 37.4 °F 31% 29.77 in - South 6.9 mph - N/A   Clear
6:30 PM 68.0 °F - 33.8 °F 28% 29.77 in - Variable 8.1 mph - N/A   Clear
7:00 PM 66.2 °F - 32.0 °F 28% 29.77 in - South 8.1 mph - N/A   Clear
7:34 PM 64.4 °F - 33.8 °F 32% 29.77 in - South 9.2 mph - N/A   Clear
8:00 PM 62.6 °F - 33.8 °F 34% 29.77 in - SSE 10.4 mph - N/A   Clear
8:30 PM 62.6 °F - 33.8 °F 34% 29.77 in 6.2 mi SE 6.9 mph - N/A   Unknown
9:00 PM 62.6 °F - 33.8 °F 34% 29.77 in 6.2 mi SE 6.9 mph - N/A   Unknown
9:30 PM 62.6 °F - 33.8 °F 34% 29.77 in 6.2 mi SE 5.8 mph - N/A   Unknown
10:00 PM 60.8 °F - 33.8 °F 36% 29.77 in 6.2 mi South 4.6 mph - N/A   Unknown
10:30 PM 59.0 °F - 33.8 °F 39% 29.74 in 6.2 mi SSE 6.9 mph - N/A   Unknown
11:00 PM 59.0 °F - 35.6 °F 42% 29.74 in 6.2 mi SE 6.9 mph - N/A   Unknown
11:30 PM 57.2 °F - 35.6 °F 44% 29.74 in 6.2 mi ESE 6.9 mph - N/A   Unknown